Wind_Speed
4 6 7 9 10 13 15 17 17 18 20 23 25 26 28 29 30 30 30 30 30 30 30 30 30 30 30 29 29 28 28 28 27 27 27 27 27 27
3 4 6 7 8 10 12 14 15 17 19 20 22 25 27 27 29 30 30 30 29 30 30 30 30 30 30 31 30 30 30 30 30 29 29 30 30 29
3 4 5 6 6 8 11 12 13 14 16 18 20 22 24 26 27 27 28 29 30 30 30 30 30 30 30 30 30 30 30 30 30 30 31 31 31 31
3 4 5 5 6 7 9 11 12 12 13 14 17 19 22 24 25 25 26 27 28 29 30 30 29 29 30 29 30 31 31 31 31 31 31 31 31 31
3 4 4 5 6 7 8 10 11 12 14 14 16 17 19 22 23 24 24 25 26 27 28 29 29 29 30 30 30 31 31 32 32 33 32 32 32 32
4 4 5 6 6 7 9 10 11 12 13 13 15 17 17 19 21 22 24 25 25 26 27 28 28 29 30 31 31 31 32 32 32 33 33 33 33 33
5 5 5 6 7 8 9 9 10 11 12 13 14 16 17 18 20 21 23 24 25 26 27 28 29 30 31 31 32 33 33 33 33 34 34 34 34 34
7 6 6 6 7 8 9 10 10 11 12 13 14 16 17 17 18 19 21 22 24 25 26 27 28 29 30 31 33 33 34 33 33 33 34 34 34 35
8 7 7 7 7 7 8 9 10 11 12 12 13 14 16 17 17 18 20 20 21 22 23 24 26 28 29 31 32 32 33 33 33 33 33 34 35 35
9 9 9 9 8 9 10 10 10 11 12 12 12 13 14 16 17 18 19 20 21 22 22 23 25 26 27 28 30 31 32 33 34 34 34 35 35 36
11 10 10 10 10 10 10 11 11 12 12 13 14 14 14 15 16 17 19 20 21 22 23 24 25 26 26 27 28 29 31 32 33 34 34 35 35 36
13 12 12 12 12 11 11 12 12 13 14 14 15 15 15 15 16 17 18 20 21 22 23 24 24 25 26 27 28 29 30 31 32 34 34 35 36 36
14 14 14 14 13 13 13 13 14 14 15 15 15 16 16 17 18 18 20 21 21 22 23 24 24 25 26 27 28 30 30 31 32 33 34 35 36 37
16 16 16 15 15 15 14 15 15 16 16 16 16 17 18 18 19 20 21 22 22 23 24 25 25 26 27 28 29 30 31 32 32 34 35 35 35 36
17 17 17 17 17 16 16 16 16 17 17 17 17 18 19 20 21 21 22 23 23 24 25 25 26 27 28 29 29 30 31 32 32 33 34 35 36 36
19 19 19 19 18 18 18 18 18 18 18 19 19 20 21 22 22 23 24 25 26 26 27 27 28 29 30 31 31 31 32 32 32 33 34 35 35 36
21 21 20 20 20 20 20 19 19 19 19 20 20 21 22 22 23 24 25 26 27 28 29 29 30 30 31 31 32 33 34 34 35 36 36 36 36 37
23 22 22 22 22 22 21 21 21 21 22 22 22 23 24 24 25 26 27 28 28 29 30 31 32 33 33 34 35 36 36 37 37 37 38 38 38 39
25 24 24 24 24 24 24 24 24 24 24 24 24 25 25 26 27 28 28 29 30 30 31 32 33 34 34 35 36 38 38 38 39 39 40 40 40 40
27 26 26 26 26 26 26 26 26 26 26 26 26 27 27 28 29 29 30 30 31 32 33 33 34 35 36 36 37 38 40 40 40 40 40 40 41 41
29 29 28 28 28 28 28 28 28 28 28 29 29 29 30 30 31 31 32 32 33 34 35 35 37 37 38 39 39 39 40 41 42 42 42 42 42 42
31 31 30 30 30 30 30 30 30 30 31 31 32 32 32 33 33 33 34 35 35 36 37 38 39 40 40 41 41 41 41 42 43 44 44 44 44 43
32 32 32 31 31 31 31 32 32 32 32 33 34 35 35 35 35 36 37 37 38 39 39 40 40 41 42 43 43 43 43 43 44 44 45 46 46 46
Wind_Direction
241 237 234 234 234 232 230 230 232 234 234 235 234 234 234 234 235 236 238 238 237 237 237 238 240 242 244 244 245 247 249 252 254 255 257 259 262 263
255 247 237 235 236 231 230 233 236 236 236 237 237 238 236 237 236 238 239 239 238 237 237 239 241 242 245 246 247 249 250 252 254 255 257 259 261 263
277 261 258 254 243 234 234 235 237 238 239 240 238 238 237 238 239 239 239 240 240 239 239 242 243 243 245 246 248 250 251 252 254 256 258 259 261 262
289 273 267 262 251 240 238 239 240 242 245 245 241 240 238 238 239 239 239 238 240 242 244 244 244 246 245 247 249 251 254 255 255 256 258 259 260 261
306 287 269 261 255 251 246 246 248 247 247 250 249 245 242 241 241 241 240 240 239 242 245 246 246 247 248 249 251 253 255 256 256 256 259 259 260 261
324 298 278 267 262 255 252 252 252 251 248 248 251 248 245 244 243 243 241 240 240 243 245 247 248 249 251 253 254 255 257 257 257 259 260 260 259 260
336 316 296 282 273 266 260 258 260 261 255 254 256 253 250 249 247 244 243 243 244 247 249 250 250 251 254 256 256 257 258 257 257 259 261 261 261 262
344 331 320 308 294 281 271 267 267 266 262 261 260 257 256 255 252 249 247 247 248 249 252 253 253 253 254 256 257 258 259 258 258 260 261 262 261 262
342 333 325 319 309 294 283 275 273 272 270 265 264 261 259 259 256 252 248 250 250 251 252 254 256 257 257 257 258 258 259 260 261 261 263 264 263 264
338 329 322 314 307 300 293 283 277 276 275 271 269 267 263 261 259 255 253 252 252 253 255 257 259 260 260 259 258 258 260 261 262 263 264 265 265 265
332 326 322 316 308 300 295 288 282 280 278 276 269 269 265 263 262 260 260 259 259 260 260 261 261 263 264 264 263 263 263 263 264 264 265 266 266 266
329 324 321 317 309 302 298 293 287 285 283 280 275 270 270 267 266 265 265 265 264 264 266 267 267 266 267 268 267 266 266 266 266 266 267 267 267 267
324 323 321 316 310 305 300 297 293 288 286 282 279 276 275 274 271 270 270 269 268 267 269 270 269 268 268 268 268 268 268 268 268 269 270 270 269 268
320 319 318 315 310 306 301 297 294 291 288 284 280 279 278 276 273 273 272 272 272 271 271 272 272 271 270 269 269 270 271 272 271 270 271 271 271 270
315 314 313 311 308 305 301 298 295 292 289 286 284 282 281 279 277 275 275 275 275 275 275 275 275 275 274 273 272 272 272 274 273 273 273 272 271 271
312 311 310 308 306 304 301 298 295 292 290 288 286 284 283 282 281 279 277 276 277 277 277 277 277 278 278 277 276 275 275 275 275 275 275 274 273 272
309 308 308 306 304 302 300 298 296 293 291 289 287 286 284 284 283 282 281 280 279 278 278 279 278 278 278 278 278 277 277 277 276 275 275 275 275 275
305 305 304 303 301 300 299 297 295 293 292 291 289 287 286 284 283 282 282 282 282 281 280 279 279 279 279 279 278 278 278 278 278 277 277 276 275 275
301 301 301 300 299 298 296 295 294 293 292 291 290 289 287 285 284 284 283 283 283 283 282 281 281 281 279 279 279 279 279 279 279 278 277 277 276 275
298 298 298 298 297 296 295 294 293 292 290 291 290 289 288 287 285 284 284 283 283 284 283 283 283 283 282 281 280 280 280 280 280 279 279 278 277 275
295 296 296 296 295 294 293 293 292 291 290 289 290 289 289 287 286 285 284 284 284 284 284 284 285 285 286 284 282 281 281 281 280 280 279 279 278 276
293 294 294 294 294 293 293 293 292 291 290 290 290 289 289 288 287 286 285 285 285 285 285 285 285 284 285 285 284 283 282 281 281 282 281 280 280 278
291 292 292 292 292 292 292 292 292 292 291 291 290 290 289 289 288 287 286 286 286 285 285 285 285 285 285 285 284 284 283 282 282 281 281 281 280 279
Height
5763 5764 5766 5767 5770 5772 5775 5778 5781 5784 5787 5789 5792 5795 5798 5801 5805 5808 5811 5815 5818 5821 5824 5827 5830 5833 5836 5839 5841 5843 5845 5847 5849 5850 5851 5853 5854 5854
5762 5763 5765 5766 5767 5769 5772 5774 5777 5780 5782 5784 5786 5789 5792 5795 5798 5801 5804 5808 5811 5814 5817 5820 5823 5826 5829 5832 5834 5836 5838 5840 5842 5843 5844 5846 5847 5847
5762 5763 5763 5764 5765 5767 5769 5771 5773 5776 5778 5780 5782 5784 5786 5789 5792 5795 5798 5801 5804 5807 5810 5814 5816 5819 5822 5824 5827 5829 5831 5833 5834 5836 5837 5838 5839 5840
5762 5762 5762 5763 5764 5765 5767 5769 5770 5772 5774 5776 5777 5779 5781 5783 5786 5788 5791 5794 5797 5800 5803 5806 5809 5812 5815 5817 5819 5821 5823 5825 5827 5828 5829 5830 5831 5832
5761 5761 5761 5762 5763 5764 5765 5767 5768 5769 5770 5772 5773 5774 5776 5778 5780 5782 5785 5788 5791 5793 5796 5799 5802 5805 5807 5809 5811 5813 5815 5817 5818 5820 5821 5822 5823 5824
5760 5760 5761 5761 5761 5762 5763 5764 5765 5766 5767 5768 5769 5771 5772 5773 5775 5777 5780 5782 5785 5787 5790 5792 5794 5797 5799 5802 5804 5805 5807 5808 5810 5811 5812 5813 5814 5815
5760 5760 5759 5760 5760 5760 5761 5761 5762 5763 5764 5765 5766 5766 5767 5768 5770 5772 5774 5776 5779 5781 5783 5786 5788 5790 5792 5794 5795 5797 5798 5800 5801 5802 5803 5804 5805 5806
5760 5759 5759 5758 5758 5758 5759 5759 5760 5760 5761 5761 5762 5762 5763 5764 5765 5767 5769 5771 5773 5776 5777 5779 5780 5782 5784 5786 5787 5788 5790 5791 5792 5793 5794 5795 5795 5796
5759 5758 5758 5757 5757 5756 5756 5756 5756 5757 5757 5758 5758 5758 5759 5760 5761 5762 5763 5765 5767 5769 5770 5772 5773 5775 5776 5777 5779 5780 5781 5782 5783 5784 5784 5785 5786 5787
5759 5757 5757 5756 5755 5754 5754 5753 5753 5753 5753 5754 5754 5754 5755 5755 5756 5757 5758 5760 5762 5763 5764 5766 5767 5768 5768 5769 5770 5771 5772 5773 5774 5774 5775 5776 5776 5777
5757 5756 5755 5753 5753 5752 5751 5750 5750 5750 5750 5750 5750 5750 5750 5751 5752 5753 5754 5755 5756 5757 5758 5759 5760 5761 5761 5761 5762 5762 5763 5763 5764 5765 5765 5766 5766 5766
5755 5754 5752 5751 5750 5749 5748 5747 5747 5746 5746 5746 5746 5746 5746 5746 5747 5748 5748 5749 5750 5751 5751 5752 5752 5753 5753 5753 5753 5754 5754 5754 5754 5755 5755 5756 5756 5756
5753 5751 5750 5748 5747 5746 5745 5744 5743 5742 5742 5741 5741 5741 5741 5741 5742 5742 5743 5743 5744 5744 5744 5745 5745 5745 5745 5746 5745 5745 5745 5745 5745 5745 5745 5745 5745 5745
5750 5748 5746 5745 5743 5742 5741 5740 5739 5738 5737 5737 5736 5736 5736 5736 5736 5736 5736 5736 5737 5737 5737 5737 5737 5737 5737 5737 5737 5736 5735 5735 5735 5735 5735 5735 5734 5734
5746 5745 5743 5741 5739 5738 5736 5735 5734 5733 5732 5732 5731 5731 5731 5730 5730 5730 5730 5729 5729 5729 5729 5729 5729 5728 5728 5728 5727 5727 5726 5725 5725 5725 5724 5724 5724 5723
5742 5740 5738 5737 5735 5733 5732 5730 5729 5728 5727 5726 5726 5725 5725 5724 5724 5723 5723 5722 5722 5721 5721 5720 5720 5720 5719 5718 5718 5717 5716 5716 5715 5714 5714 5713 5712 5711
5737 5735 5734 5732 5730 5728 5727 5725 5724 5723 5722 5721 5720 5719 5718 5717 5717 5716 5715 5715 5714 5713 5712 5711 5711 5710 5709 5709 5708 5707 5706 5705 5704 5703 5702 5702 5701 5700
5732 5730 5728 5726 5724 5722 5721 5719 5718 5716 5715 5714 5713 5712 5711 5710 5709 5708 5707 5706 5705 5704 5703 5702 5701 5700 5700 5698 5697 5696 5695 5694 5692 5691 5690 5690 5689 5688
5725 5723 5722 5720 5718 5716 5714 5713 5711 5710 5708 5707 5705 5704 5703 5701 5700 5699 5698 5697 5695 5694 5693 5692 5691 5690 5689 5688 5686 5684 5683 5682 5680 5679 5677 5676 5676 5675
5718 5716 5714 5712 5710 5709 5707 5705 5703 5702 5700 5699 5697 5695 5694 5692 5691 5690 5688 5687 5685 5684 5682 5681 5679 5678 5676 5676 5675 5673 5669 5668 5667 5665 5664 5663 5662 5661
5710 5708 5706 5704 5702 5700 5698 5697 5695 5693 5691 5690 5688 5686 5684 5683 5681 5679 5678 5676 5674 5673 5671 5669 5667 5665 5663 5662 5661 5660 5657 5654 5652 5651 5650 5649 5648 5647
5701 5699 5697 5695 5693 5691 5690 5688 5686 5684 5682 5680 5678 5676 5674 5672 5670 5668 5666 5665 5663 5661 5659 5657 5655 5652 5650 5649 5647 5645 5644 5642 5639 5636 5634 5633 5631 5631
5691 5690 5688 5686 5684 5682 5680 5678 5676 5674 5672 5670 5667 5665 5663 5661 5659 5657 5655 5653 5651 5648 5646 5644 5642 5639 5636 5634 5632 5631 5629 5627 5625 5623 5621 5617 5615 5614